FW8651 Weather Reports


time (UTC)temp
F
wind
direction
speed
knots
gust
knots
rain 1hr
in
rain 24hr
in
rain mn
in
humidity
%
barometer
mb
20260507151137 64 324 1.7 1.7 0.00 0.00 0.00 37 1022.8
20260507150634 64 216 0.9 0.9 0.00 0.00 0.00 40 1022.6
20260507150131 64 303 1.7 1.7 0.00 0.00 0.00 36 1022.6
20260507145626 63 354 0.9 0.9 0.00 0.00 0.00 36 1022.6
20260507145124 63 219 1.7 1.7 0.00 0.00 0.00 35 1022.4
20260507144620 62 270 0.9 0.9 0.00 0.00 0.00 39 1022.5
20260507144119 62 196 0.0 0.0 0.00 0.00 0.00 39 1022.6
20260507143614 60 227 0.0 0.0 0.00 0.00 0.00 41 1022.1
20260507143112 61 211 0.0 0.9 0.00 0.00 0.00 42 1022.4
20260507142607 61 264 0.0 0.9 0.00 0.00 0.00 40 1022.5
20260507142104 60 259 0.9 1.7 0.00 0.00 0.00 38 1022.4
20260507141600 60 238 0.0 0.9 0.00 0.00 0.00 39 1022.5
20260507141057 60 204 0.0 0.0 0.00 0.00 0.00 41 1022.2
20260507140554 59 227 1.7 1.7 0.00 0.00 0.00 40 1022.3
20260507140051 59 191 0.9 0.9 0.00 0.00 0.00 41 1022.3
20260507135548 59 200 0.0 0.9 0.00 0.00 0.00 41 1021.8
20260507135046 59 206 0.0 0.0 0.00 0.00 0.00 41 1022.1
20260507134542 59 205 0.9 0.9 0.00 0.00 0.00 40 1022.1
20260507134037 59 200 0.9 0.9 0.00 0.00 0.00 41 1021.9
20260507133534 59 219 0.0 0.0 0.00 0.00 0.00 41 1022.1
20260507133032 58 203 0.0 0.9 0.00 0.00 0.00 41 1021.9
20260507132528 59 223 0.0 0.0 0.00 0.00 0.00 40 1021.8
20260507132025 59 230 0.0 0.0 0.00 0.00 0.00 39 1021.9
20260507131522 58 251 0.0 0.9 0.00 0.00 0.00 40 1021.8
20260507131019 58 217 0.0 0.9 0.00 0.00 0.00 41 1021.9
20260507130516 58 186 0.0 0.0 0.00 0.00 0.00 40 1022.2
20260507130014 58 181 0.9 0.9 0.00 0.00 0.00 41 1021.9
20260507125512 57 298 0.9 1.7 0.00 0.00 0.00 42 1021.7
20260507125011 57 240 0.0 0.0 0.00 0.00 0.00 42 1021.9
20260507124506 58 292 0.9 0.9 0.00 0.00 0.00 43 1021.6
20260507124004 58 347 1.7 1.7 0.00 0.00 0.00 42 1021.5
20260507123501 58 286 1.7 1.7 0.00 0.00 0.00 41 1021.7
20260507122957 57 16 2.6 4.3 0.00 0.00 0.00 44 1021.7
20260507122453 57 240 0.0 0.0 0.00 0.00 0.00 43 1021.7
20260507121949 57 10 0.9 0.9 0.00 0.00 0.00 44 1021.5
20260507121444 57 149 0.9 0.9 0.00 0.00 0.00 43 1021.4
20260507120941 57 221 0.0 0.9 0.00 0.00 0.00 42 1021.6
20260507120437 57 201 0.0 0.0 0.00 0.00 0.00 44 1021.6
20260507115934 57 208 0.0 0.0 0.00 0.00 0.00 44 1021.5
20260507115430 57 16 0.9 1.7 0.00 0.00 0.00 44 1021.4
20260507114926 57 190 0.9 0.9 0.00 0.00 0.00 45 1021.6
20260507114423 57 188 0.0 0.9 0.00 0.00 0.00 45 1021.6
20260507113920 56 223 0.0 0.0 0.00 0.00 0.00 46 1021.7
20260507113417 56 255 0.0 0.0 0.00 0.00 0.00 47 1021.5
20260507112914 56 355 1.7 1.7 0.00 0.00 0.00 47 1021.6
20260507112412 56 220 0.0 0.0 0.00 0.00 0.00 50 1021.8
20260507111909 56 197 1.7 1.7 0.00 0.00 0.00 50 1021.6
20260507111406 56 228 0.0 0.0 0.00 0.00 0.00 49 1021.7
20260507110902 56 294 0.0 0.9 0.00 0.00 0.00 50 1021.7
20260507110358 55 268 0.0 0.9 0.00 0.00 0.00 51 1021.6
20260507105855 55 249 0.0 0.0 0.00 0.00 0.00 52 1021.8
20260507105352 56 208 0.0 0.0 0.00 0.00 0.00 53 1021.7
20260507104849 56 196 0.0 0.0 0.00 0.00 0.00 55 1021.5
20260507104345 55 201 0.0 0.9 0.00 0.00 0.00 54 1021.9
20260507103841 55 201 0.0 0.0 0.00 0.00 0.00 56 1021.6
20260507103338 55 236 0.9 0.9 0.00 0.00 0.00 56 1021.9
20260507102835 56 217 0.0 0.0 0.00 0.00 0.00 55 1021.8
20260507102331 56 238 0.9 0.9 0.00 0.00 0.00 54 1021.7
20260507101828 56 241 0.0 0.0 0.00 0.00 0.00 54 1021.6
20260507101327 55 208 0.9 0.9 0.00 0.00 0.00 55 1021.7
20260507100825 55 198 0.0 0.0 0.00 0.00 0.00 56 1021.7
20260507100323 55 165 0.0 0.9 0.00 0.00 0.00 58 1021.4
20260507095821 55 193 0.0 0.0 0.00 0.00 0.00 58 1021.7
20260507095317 55 199 0.9 0.9 0.00 0.00 0.00 58 1021.7
20260507094814 55 221 0.0 0.9 0.00 0.00 0.00 58 1021.7
20260507094311 55 212 0.0 0.0 0.00 0.00 0.00 58 1021.7
20260507093808 55 242 0.0 0.0 0.00 0.00 0.00 59 1021.6
20260507093306 55 235 0.0 0.0 0.00 0.00 0.00 58 1021.9
20260507092804 55 269 0.0 0.0 0.00 0.00 0.00 57 1022.1
20260507092300 56 338 0.9 1.7 0.00 0.00 0.00 55 1021.8
20260507091756 56 302 0.9 0.9 0.00 0.00 0.00 52 1022.1
20260507091253 55 280 0.9 0.9 0.00 0.00 0.00 51 1021.8
20260507090753 55 213 0.0 0.0 0.00 0.00 0.00 52 1021.9
20260507090250 56 209 0.0 0.9 0.00 0.00 0.00 52 1021.9
20260507085747 56 231 0.0 0.0 0.00 0.00 0.00 52 1021.9
20260507085244 55 221 0.0 0.0 0.00 0.00 0.00 52 1021.7
20260507084742 56 209 0.0 0.0 0.00 0.00 0.00 53 1022.1
20260507084238 55 215 0.0 0.0 0.00 0.00 0.00 54 1021.9
20260507083735 55 190 0.0 0.9 0.00 0.00 0.00 54 1022.1
20260507083232 55 205 0.0 0.9 0.00 0.00 0.00 54 1022.3
20260507082728 55 207 0.0 0.0 0.00 0.00 0.00 54 1022.1
20260507082224 55 247 0.0 0.0 0.00 0.00 0.00 53 1022.2
20260507081721 55 245 0.0 0.0 0.00 0.00 0.00 52 1022.2
20260507081217 56 264 0.9 0.9 0.00 0.00 0.00 50 1022.1
20260507080714 56 237 0.0 0.9 0.00 0.00 0.00 49 1022.3
20260507080210 56 203 0.0 0.9 0.00 0.00 0.00 49 1022.3
20260507075705 57 191 0.0 0.9 0.00 0.00 0.00 48 1022.2
20260507075202 56 242 0.9 0.9 0.00 0.00 0.00 50 1022.3
20260507074658 55 100 0.9 1.7 0.00 0.00 0.00 50 1022.3
20260507074157 55 229 0.0 0.9 0.00 0.00 0.00 51 1022.3
20260507073653 55 191 0.9 1.7 0.00 0.00 0.00 52 1022.2
20260507073149 54 146 4.3 6.1 0.00 0.00 0.00 56 1022.2
20260507072647 54 193 0.9 0.9 0.00 0.00 0.00 58 1022.1
20260507072144 54 184 0.9 0.9 0.00 0.00 0.00 57 1022.4
20260507071642 55 165 1.7 1.7 0.00 0.00 0.00 56 1022.1
20260507071138 54 208 1.7 1.7 0.00 0.00 0.00 56 1022.3
20260507070635 53 221 0.0 0.0 0.00 0.00 0.00 58 1022.3
20260507070132 54 222 0.0 0.9 0.00 0.00 0.00 57 1022.3
20260507065628 55 211 0.9 0.9 0.00 0.00 0.00 56 1022.4
20260507065125 54 230 0.0 0.9 0.00 0.00 0.00 57 1022.5
20260507064623 53 196 0.9 1.7 0.00 0.00 0.00 61 1022.4
20260507064121 53 154 0.9 1.7 0.00 0.00 0.00 62 1022.3
20260507063618 53 184 0.9 0.9 0.00 0.00 0.00 61 1022.3
20260507063115 53 192 0.9 0.9 0.00 0.00 0.00 61 1022.3
20260507062612 53 187 0.9 0.9 0.00 0.00 0.00 63 1022.3
20260507062110 53 203 0.0 0.9 0.00 0.00 0.00 63 1022.4
20260507061607 53 200 0.9 0.9 0.00 0.00 0.00 63 1022.3
20260507061105 53 196 0.0 0.0 0.00 0.00 0.00 63 1022.5
20260507060603 53 194 0.0 0.9 0.00 0.00 0.00 62 1022.1
20260507060059 53 196 0.9 0.9 0.00 0.00 0.00 62 1022.2
20260507055554 53 218 0.9 0.9 0.00 0.00 0.00 63 1022.3
20260507055051 53 218 0.0 0.9 0.00 0.00 0.00 63 1022.2
20260507054547 53 215 0.0 0.0 0.00 0.00 0.00 62 1022.4
20260507054044 53 220 0.9 0.9 0.00 0.00 0.00 62 1022.5
20260507053542 53 224 0.0 0.0 0.00 0.00 0.00 63 1022.6
20260507053040 53 184 0.0 0.0 0.00 0.00 0.00 63 1022.4
20260507052538 53 219 0.0 0.9 0.00 0.00 0.00 65 1022.8
20260507052034 53 201 0.9 0.9 0.00 0.00 0.00 66 1022.5
20260507051532 52 208 0.0 0.0 0.00 0.00 0.00 67 1022.6
20260507051028 53 227 0.0 0.0 0.00 0.00 0.00 67 1022.4
20260507050525 53 222 0.0 0.0 0.00 0.00 0.00 67 1022.3
20260507050022 53 242 1.7 2.6 0.00 0.00 0.00 68 1022.4
20260507045518 53 230 0.0 0.0 0.00 0.00 0.00 68 1022.3
20260507045016 53 242 0.0 0.0 0.00 0.00 0.00 70 1022.4
20260507044512 53 226 0.9 0.9 0.00 0.00 0.00 68 1022.2
20260507044009 53 243 0.0 0.0 0.00 0.00 0.00 69 1022.3
20260507043505 52 230 0.9 0.9 0.00 0.00 0.00 73 1022.3
20260507043002 52 230 0.0 0.9 0.00 0.00 0.00 76 1022.4
20260507042458 52 206 0.0 0.9 0.00 0.00 0.00 76 1022.3
20260507041954 51 223 0.0 0.0 0.00 0.00 0.00 77 1022.3
20260507041451 51 223 0.0 0.9 0.00 0.00 0.00 77 1022.2
20260507040948 51 194 0.0 0.9 0.00 0.00 0.00 78 1022.5
20260507040443 51 192 0.0 0.0 0.00 0.00 0.00 78 1022.2
20260507035939 51 213 0.9 0.9 0.00 0.00 0.00 78 1022.2
20260507035436 52 308 0.9 0.9 0.00 0.00 0.00 76 1022.5
20260507034933 51 313 1.7 1.7 0.00 0.00 0.00 78 1022.1
20260507034430 51 215 0.0 0.0 0.00 0.00 0.00 78 1021.8
20260507033928 52 258 0.9 0.9 0.00 0.00 0.00 75 1021.9
20260507033426 52 332 2.6 2.6 0.00 0.00 0.00 74 1021.6
20260507032922 53 32 2.6 2.6 0.00 0.00 0.00 75 1021.7
20260507032420 52 341 3.5 4.3 0.00 0.00 0.00 77 1021.8
20260507031915 52 214 0.9 0.9 0.00 0.00 0.00 77 1021.8
20260507031412 52 196 0.9 1.7 0.00 0.00 0.00 77 1021.8
20260507030909 52 209 0.9 0.9 0.00 0.00 0.00 76 1021.7
20260507030406 52 231 0.0 0.9 0.00 0.00 0.00 76 1021.7
20260507025903 52 243 0.0 0.0 0.00 0.00 0.00 75 1021.7
20260507025401 52 201 0.0 0.9 0.00 0.00 0.00 75 1021.6
20260507024858 52 195 0.0 0.9 0.00 0.00 0.00 75 1021.5
20260507024355 52 173 0.0 0.9 0.00 0.00 0.00 76 1021.8
20260507023851 53 195 0.0 0.0 0.00 0.00 0.00 76 1021.7
20260507023348 53 191 0.9 0.9 0.00 0.00 0.00 76 1021.2
20260507022845 54 186 0.9 0.9 0.00 0.00 0.00 75 1021.5
20260507022342 54 210 0.9 1.7 0.00 0.00 0.00 72 1021.6
20260507021838 54 190 2.6 2.6 0.00 0.00 0.00 73 1021.4
20260507021333 55 287 1.7 2.6 0.00 0.00 0.00 71 1021.1
20260507020831 55 300 2.6 2.6 0.00 0.00 0.00 71 1020.9
20260507020328 55 316 2.6 2.6 0.00 0.00 0.00 67 1021.1
20260507015825 56 227 1.7 1.7 0.00 0.00 0.00 66 1021.1
20260507015323 57 299 2.6 2.6 0.00 0.00 0.00 63 1021.0
20260507014820 58 298 1.7 1.7 0.00 0.00 0.00 65 1021.1
20260507014316 58 294 1.7 1.7 0.00 0.00 0.00 64 1021.1
20260507013812 58 207 0.9 0.9 0.00 0.00 0.00 62 1020.9
20260507013310 59 231 0.0 0.0 0.00 0.00 0.00 63 1021.1
20260507012807 59 323 2.6 2.6 0.00 0.00 0.00 64 1020.9
20260507012306 59 261 0.9 0.9 0.00 0.00 0.00 62 1021.1
20260507011800 59 239 2.6 4.3 0.00 0.00 0.00 62 1020.9
20260507011257 59 261 0.9 1.7 0.00 0.00 0.00 61 1020.9
20260507010756 60 284 0.0 0.9 0.00 0.00 0.00 61 1020.9
20260507010252 60 289 0.9 0.9 0.00 0.00 0.00 61 1020.9
20260507005750 60 316 0.9 0.9 0.00 0.00 0.00 61 1021.1
20260507005246 60 314 0.9 1.7 0.00 0.00 0.00 61 1021.0
20260507004743 60 312 2.6 2.6 0.00 0.00 0.00 62 1021.2
20260507004241 60 229 0.9 0.9 0.00 0.00 0.00 64 1021.0
20260507003736 60 254 0.9 0.9 0.00 0.00 0.00 69 1021.0
20260507003232 60 231 1.7 2.6 0.00 0.00 0.00 68 1020.9
20260507002728 61 237 1.7 2.6 0.00 0.00 0.00 69 1020.6
20260507002224 61 264 0.9 1.7 0.00 0.00 0.00 70 1020.8
20260507001721 60 282 0.9 1.7 0.00 0.00 0.00 71 1020.6
20260507001219 60 268 1.7 1.7 0.00 0.00 0.00 71 1020.8
20260507000715 61 337 1.7 1.7 0.00 0.00 0.00 71 1020.8
20260507000212 61 278 0.9 0.9 0.00 0.00 0.00 69 1020.8
20260506235708 62 316 2.6 2.6 0.00 0.00 0.00 68 1020.5
20260506235203 63 203 0.9 1.7 0.00 0.00 0.00 62 1020.4
20260506234700 63 286 2.6 2.6 0.00 0.00 0.00 61 1020.5
20260506234157 64 295 0.9 1.7 0.00 0.00 0.00 58 1020.3
20260506233655 63 282 0.9 0.9 0.00 0.00 0.00 62 1020.5
20260506233151 63 247 1.7 1.7 0.00 0.00 0.00 62 1020.6
20260506232648 63 229 0.9 0.9 0.00 0.00 0.00 64 1020.6
20260506232143 63 219 0.9 0.9 0.00 0.00 0.00 62 1020.6
20260506231640 62 283 1.7 1.7 0.00 0.00 0.00 60 1020.4
20260506231139 61 301 1.7 1.7 0.00 0.00 0.00 65 1020.8
20260506230635 61 296 0.9 0.9 0.00 0.00 0.00 65 1020.8
20260506230132 62 247 0.9 0.9 0.00 0.00 0.00 66 1020.8
20260506225628 61 206 0.0 0.0 0.00 0.00 0.00 66 1020.5
20260506225125 62 12 2.6 2.6 0.00 0.00 0.00 67 1020.4
20260506224622 61 249 0.9 1.7 0.00 0.00 0.00 69 1020.5
20260506224118 61 275 1.7 1.7 0.00 0.00 0.00 69 1020.9
20260506223615 63 258 1.7 2.6 0.00 0.00 0.00 67 1020.8
20260506223111 63 272 2.6 4.3 0.00 0.00 0.00 63 1020.6
20260506222608 62 197 0.9 1.7 0.00 0.00 0.00 65 1020.6
20260506222104 60 180 1.7 2.6 0.00 0.00 0.00 67 1020.5
20260506221602 63 165 1.7 2.6 0.00 0.00 0.00 68 1020.8
20260506221100 63 233 0.9 0.9 0.00 0.00 0.00 66 1020.8
20260506220555 61 218 2.6 2.6 0.00 0.00 0.00 63 1020.6
20260506220051 60 185 2.6 2.6 0.00 0.00 0.00 66 1020.6
20260506215548 61 220 3.5 4.3 0.00 0.00 0.00 65 1020.8
20260506215044 61 193 2.6 4.3 0.00 0.00 0.00 67 1020.9
20260506214541 60 219 0.9 1.7 0.00 0.00 0.00 67 1020.9
20260506214038 61 229 1.7 1.7 0.00 0.00 0.00 66 1020.9
20260506213536 61 220 0.0 0.9 0.00 0.00 0.00 66 1021.1
20260506213033 61 307 1.7 2.6 0.00 0.00 0.00 65 1021.4
20260506212530 61 231 1.7 1.7 0.00 0.00 0.00 65 1021.2
20260506212025 60 215 2.6 2.6 0.00 0.00 0.00 68 1020.9
20260506211521 61 211 0.9 1.7 0.00 0.00 0.00 68 1021.1
20260506211018 60 254 2.6 2.6 0.00 0.00 0.00 67 1021.0
20260506210515 61 228 2.6 4.3 0.00 0.00 0.00 65 1021.2
20260506210011 61 200 2.6 2.6 0.00 0.00 0.00 68 1021.1
20260506205508 59 214 2.6 2.6 0.00 0.00 0.00 72 1021.0
20260506205003 59 203 1.7 2.6 0.00 0.00 0.00 73 1021.2
20260506204502 60 251 1.7 2.6 0.00 0.00 0.00 70 1021.1
20260506203958 60 247 1.7 1.7 0.00 0.00 0.00 70 1021.1
20260506203456 60 191 1.7 2.6 0.00 0.00 0.00 70 1021.4
20260506202953 61 203 0.0 0.0 0.00 0.00 0.00 69 1021.1
20260506202450 60 212 0.9 0.9 0.00 0.00 0.00 70 1021.1
20260506201946 61 200 0.0 0.0 0.00 0.00 0.00 71 1021.5
20260506201444 61 191 0.9 0.9 0.00 0.00 0.00 67 1021.1
20260506200940 60 277 0.9 0.9 0.00 0.00 0.00 65 1021.1
20260506200437 62 256 1.7 1.7 0.00 0.00 0.00 66 1021.2
20260506195933 62 153 2.6 2.6 0.00 0.00 0.00 64 1021.2
20260506195430 61 190 0.9 1.7 0.00 0.00 0.00 58 1021.4
20260506194927 61 186 0.9 0.9 0.00 0.00 0.00 56 1021.6
20260506194424 62 190 1.7 1.7 0.00 0.00 0.00 56 1021.6
20260506193921 61 232 2.6 2.6 0.00 0.00 0.00 54 1021.6
20260506193418 62 129 2.6 4.3 0.00 0.00 0.00 59 1021.6
20260506192914 60 355 2.6 4.3 0.00 0.00 0.00 55 1021.1
20260506192411 60 274 2.6 2.6 0.00 0.00 0.00 52 1021.4
20260506191908 61 214 0.9 2.6 0.00 0.00 0.00 53 1021.6
20260506191404 62 255 0.9 0.9 0.00 0.00 0.00 52 1021.6
20260506190902 61 238 1.7 1.7 0.00 0.00 0.00 57 1021.6
20260506190358 60 247 1.7 1.7 0.00 0.00 0.00 55 1021.5
20260506185855 61 224 0.9 0.9 0.00 0.00 0.00 56 1021.6
20260506185352 60 245 0.9 0.9 0.00 0.00 0.00 56 1021.4
20260506184849 59 203 1.7 2.6 0.00 0.00 0.00 54 1021.5
20260506184346 60 344 4.3 6.1 0.00 0.00 0.00 52 1021.1
20260506183843 59 277 0.0 0.9 0.00 0.00 0.00 55 1021.4
20260506183338 59 214 2.6 2.6 0.00 0.00 0.00 52 1021.4
20260506182836 60 254 0.9 1.7 0.00 0.00 0.00 52 1021.4
20260506182333 59 242 0.9 1.7 0.00 0.00 0.00 57 1021.7
20260506181831 59 165 1.7 1.7 0.00 0.00 0.00 57 1021.4
20260506181329 59 341 2.6 2.6 0.00 0.00 0.00 53 1021.4
20260506180825 59 113 0.9 1.7 0.00 0.00 0.00 56 1021.2
20260506180321 58 192 0.0 0.0 0.00 0.00 0.00 56 1021.4
20260506175818 58 299 1.7 1.7 0.00 0.00 0.00 52 1021.6
20260506175315 57 278 1.7 1.7 0.00 0.00 0.00 55 1021.5
20260506174812 58 316 0.0 0.9 0.00 0.00 0.00 55 1021.6
20260506174309 57 214 0.0 0.0 0.00 0.00 0.00 57 1021.1
20260506173807 57 142 3.5 4.3 0.00 0.00 0.00 55 1021.2
20260506173303 56 245 0.9 0.9 0.00 0.00 0.00 59 1021.2
20260506172800 55 259 0.0 0.9 0.00 0.00 0.00 62 1021.2
20260506172257 55 102 0.9 0.9 0.00 0.00 0.00 58 1021.2
20260506171754 56 343 2.6 2.6 0.00 0.00 0.00 59 1021.2
20260506171251 57 112 1.7 1.7 0.00 0.00 0.00 54 1021.1
20260506170749 56 290 1.7 1.7 0.00 0.00 0.00 56 1021.1
20260506170245 56 178 0.9 0.9 0.00 0.00 0.00 52 1021.1
20260506165744 55 253 1.7 1.7 0.00 0.00 0.00 58 1020.9
20260506165241 55 266 1.7 1.7 0.00 0.00 0.00 54 1021.1
20260506164738 55 325 2.6 2.6 0.00 0.00 0.00 56 1020.9
20260506164235 54 189 0.0 0.9 0.00 0.00 0.00 56 1020.9
20260506163732 55 227 0.0 0.9 0.00 0.00 0.00 61 1020.8
20260506163226 53 270 0.0 0.9 0.00 0.00 0.00 63 1020.8
20260506162722 53 243 0.9 0.9 0.00 0.00 0.00 63 1020.9
20260506162220 53 231 0.0 0.9 0.00 0.00 0.00 65 1020.6
20260506161712 53 245 0.9 0.9 0.00 0.00 0.00 66 1020.5
20260506161209 53 240 0.0 0.0 0.00 0.00 0.00 62 1020.4
20260506160706 53 279 0.9 0.9 0.00 0.00 0.00 63 1020.6
20260506160202 53 214 0.0 0.0 0.00 0.00 0.00 61 1020.8
20260506155701 52 88 0.0 0.9 0.00 0.00 0.00 61 1020.6
20260506155158 51 192 0.9 1.7 0.00 0.00 0.00 64 1020.6
20260506153300 49 210 1.7 1.7 0.00 0.00 0.00 68 1020.4
20260506152757 49 259 0.9 0.9 0.00 0.00 0.00 65 1020.3
20260506152254 49 328 0.0 0.9 0.00 0.00 0.00 65 1020.3
20260506151753 48 282 1.7 1.7 0.00 0.00 0.00 68 1020.3